Wind_Speed
52 52 50 49 48 48 48 49 49 50 50 50 50 50 50 50 51 52 52 53 53 53 53 54 54 55 56 57 57 58 59 60 61 61 61 62 62 62 63 63 64 64 65 65 65 66 66 67 68 68 69 69 69 70 70 70 70 69 69 69 69 69 68 68 68 68 68 67 67 66 67 68 69 69 68 67 65 63 61 59 58 59 59 59 59 59
52 51 49 48 48 48 48 48 48 48 48 48 47 47 48 48 50 51 52 52 52 52 52 51 51 51 51 51 51 52 53 54 55 56 57 58 59 59 60 60 61 61 62 62 63 64 65 66 66 67 68 68 69 69 69 70 70 69 69 69 69 69 69 68 68 67 67 68 68 68 68 68 69 68 67 65 63 61 58 57 57 57 59 59 60 60
49 48 48 48 48 49 49 50 49 49 48 47 47 46 46 47 49 50 51 52 52 52 52 51 50 49 49 48 48 48 49 50 51 53 54 55 56 57 57 58 58 58 59 60 60 61 62 63 64 65 66 67 68 68 69 69 69 69 69 69 70 70 69 69 68 67 67 67 67 68 68 68 67 66 65 63 61 59 57 55 56 57 59 60 61 61
47 46 47 49 50 51 52 52 52 52 51 50 49 48 47 48 49 50 52 53 53 53 52 52 51 50 49 48 48 47 47 48 49 51 52 53 55 55 56 56 56 57 57 58 59 60 61 62 63 64 65 66 66 67 68 68 69 69 69 70 70 70 70 69 68 67 66 66 67 67 67 66 65 64 63 61 59 57 55 55 55 57 60 61 62 62
46 46 48 52 54 56 56 56 56 55 54 53 51 50 49 49 50 52 53 54 55 55 54 53 52 51 51 50 49 48 48 48 48 49 51 52 53 54 54 55 55 56 57 57 58 59 60 61 61 62 63 64 65 66 67 67 68 68 68 69 69 69 68 68 67 67 66 66 66 66 65 63 62 62 61 60 58 56 54 54 56 58 61 62 63 62
49 48 49 53 56 58 59 59 58 57 56 54 53 51 51 51 52 54 55 56 57 57 56 55 54 53 53 52 51 50 50 49 49 50 51 51 52 53 54 55 55 55 56 56 57 58 59 60 61 61 62 63 63 64 64 65 65 65 65 66 66 65 65 66 66 66 65 65 65 64 63 61 61 60 60 59 57 55 54 55 57 60 62 63 64 63
53 52 52 54 56 59 60 60 59 58 56 54 53 52 53 54 55 56 57 58 59 59 58 56 55 54 54 53 53 52 52 52 52 52 53 53 54 55 55 56 56 56 56 56 57 58 59 60 60 61 61 62 62 62 62 62 62 62 62 62 62 62 64 64 64 64 64 64 63 62 61 60 60 60 59 58 56 55 54 55 58 61 63 65 65 64
58 56 56 57 58 60 61 60 59 58 56 56 55 56 57 59 59 60 60 61 61 60 58 56 55 54 54 53 53 53 54 54 54 55 55 56 56 57 57 58 58 57 57 57 57 58 59 60 60 61 61 61 61 61 61 61 60 60 60 59 60 61 63 64 64 63 63 62 62 61 60 59 59 59 58 57 56 55 55 57 60 62 64 65 65 64
62 59 59 60 61 62 63 62 61 60 59 60 61 62 63 63 63 63 63 62 61 60 57 55 54 53 53 52 53 53 54 55 56 56 57 57 57 58 59 59 59 59 58 58 58 59 59 60 60 60 61 61 61 62 62 61 61 60 59 59 59 60 62 64 65 64 63 62 61 60 58 58 58 58 58 57 56 56 57 59 61 63 64 64 64 62
62 59 59 60 62 63 65 65 64 64 64 65 66 67 67 67 66 65 64 62 61 59 56 54 53 52 52 52 52 54 55 57 58 58 58 58 58 59 59 60 60 60 59 59 59 59 60 60 60 60 61 61 62 62 62 62 62 61 60 59 59 60 61 64 64 64 62 60 59 58 58 57 58 58 58 58 57 58 59 62 63 63 63 62 61 60
58 58 59 61 62 63 65 66 67 68 68 69 69 70 70 69 67 65 63 61 58 56 54 53 52 51 51 52 53 55 56 58 59 60 60 60 59 60 60 60 60 60 60 60 60 60 61 61 61 61 61 62 62 62 62 62 61 61 60 60 59 60 60 62 62 61 59 58 58 58 58 59 59 60 60 60 61 62 63 64 64 63 62 61 60 60
55 58 61 63 64 65 66 68 69 70 70 70 70 70 69 68 66 63 60 58 56 54 52 51 51 51 51 52 54 55 57 59 60 61 61 61 61 61 62 62 62 62 61 61 61 62 62 62 62 62 62 62 61 61 60 60 60 59 59 59 59 59 59 59 58 58 57 57 58 59 60 60 61 62 63 64 64 65 66 65 64 63 62 61 60 60
58 61 63 65 67 68 68 69 69 68 67 67 67 65 63 63 61 59 56 55 53 52 51 51 51 51 52 53 55 57 58 60 61 62 62 63 63 63 63 64 64 63 63 63 63 63 63 63 63 62 62 61 60 59 59 58 58 59 59 59 59 59 58 57 57 57 57 58 59 59 60 61 61 62 62 63 63 64 64 63 63 62 62 61 62 62
61 62 63 65 66 66 65 63 59 57 58 60 60 58 56 55 54 53 53 52 52 51 51 51 52 53 54 55 57 58 60 61 62 62 63 64 64 65 65 65 65 65 64 64 64 64 64 63 63 62 61 59 58 58 58 58 59 60 60 60 59 59 58 58 58 58 59 59 60 60 61 61 61 61 61 61 60 60 61 61 61 62 62 63 64 65
57 57 56 57 58 58 56 53 50 51 53 54 53 50 49 49 50 50 50 50 51 51 51 52 53 55 56 57 58 59 60 61 62 62 63 64 65 65 65 65 65 65 65 64 64 64 63 63 62 61 60 58 58 58 59 60 61 62 62 61 60 60 60 60 60 61 61 62 62 63 63 63 63 63 62 61 60 60 60 61 62 63 65 66 67 68
49 49 48 48 49 49 49 49 51 52 53 51 48 45 44 46 47 49 49 50 51 52 52 53 55 56 56 57 58 59 59 60 61 62 62 63 64 64 64 64 64 64 64 63 63 63 63 62 62 61 60 59 59 60 61 62 63 64 64 63 63 62 62 62 63 64 64 65 66 66 66 66 66 65 64 63 63 62 62 63 64 65 66 67 68 68
45 45 44 44 44 45 46 48 51 52 52 50 47 45 44 45 46 47 48 49 50 51 52 53 53 54 54 55 56 57 57 58 59 60 60 61 61 62 62 61 61 62 62 62 62 62 62 62 62 62 61 61 61 62 64 65 66 66 66 66 66 65 65 65 65 66 67 68 69 70 70 69 69 68 67 66 66 65 65 65 65 66 66 67 68 68
46 46 46 45 44 43 43 44 45 46 47 47 47 47 46 46 45 45 45 46 47 48 49 49 49 50 50 50 51 52 53 54 55 56 57 57 58 58 58 58 59 59 60 60 61 61 61 62 62 62 62 62 63 64 66 67 68 69 69 69 68 68 68 67 68 68 70 71 72 73 73 73 72 71 70 69 68 68 67 67 67 67 67 67 67 67
51 51 50 49 47 45 43 42 41 41 42 44 45 47 49 49 48 46 45 46 46 47 47 47 47 48 48 48 49 50 49 49 51 52 53 53 53 54 54 54 55 56 57 57 58 58 59 60 60 61 62 62 63 64 66 67 68 69 70 70 70 70 70 70 71 72 73 74 74 75 75 75 74 73 72 71 69 68 67 67 67 67 66 67 67 67
57 57 56 55 54 53 51 49 47 46 45 46 46 48 49 51 51 50 49 48 48 48 49 49 49 50 50 50 51 51 49 49 50 51 52 52 52 51 51 51 52 53 53 54 55 55 56 57 58 59 60 61 62 64 65 66 67 68 69 69 70 70 71 72 73 74 75 76 76 76 76 76 75 74 73 72 70 69 68 67 67 66 66 66 66 66
64 64 63 63 62 62 61 60 59 58 56 55 54 53 53 54 54 53 53 52 52 51 52 52 53 54 54 54 54 54 53 53 53 54 54 54 54 53 53 52 52 53 53 54 54 54 55 56 57 58 59 60 61 62 64 65 65 66 67 67 68 68 70 71 73 74 75 76 76 76 75 75 74 74 73 73 72 72 71 71 70 70 69 69 68 67
72 71 71 69 68 68 68 68 67 66 65 63 62 61 60 59 58 57 56 56 56 56 55 56 57 58 58 58 58 58 57 57 57 58 58 58 58 58 57 56 56 56 57 57 57 57 57 58 58 59 60 61 62 62 63 64 65 65 66 66 67 67 68 69 70 72 73 74 74 74 74 74 74 73 73 73 73 73 73 73 73 73 72 72 71 70
76 76 76 74 72 72 71 70 69 68 67 66 64 64 64 63 61 61 61 60 60 61 61 61 62 62 62 62 62 62 62 61 61 61 62 62 62 62 61 60 60 60 61 61 61 61 61 61 62 62 62 63 63 64 65 66 66 66 67 67 67 67 67 68 69 70 70 71 72 72 73 73 73 73 72 72 72 72 72 72 72 72 72 72 72 71
76 77 77 76 74 73 71 68 67 65 64 63 63 64 64 64 64 64 64 64 64 64 65 66 66 66 66 66 66 66 65 65 65 64 64 65 65 65 64 62 62 62 63 64 64 63 63 64 65 65 65 65 66 67 67 68 68 68 68 68 68 68 68 68 68 69 69 70 70 71 71 71 71 71 71 71 71 71 70 70 70 70 70 70 70 69
73 74 75 75 73 70 68 65 62 61 61 61 62 63 63 64 64 65 66 66 66 66 67 68 69 70 70 70 69 69 69 69 68 67 66 67 67 67 66 64 63 63 64 65 64 63 63 64 65 66 66 66 67 68 68 69 69 69 69 69 69 69 68 68 68 68 68 68 68 69 69 69 69 69 69 68 68 68 68 68 68 68 68 68 68 68
66 68 69 69 68 66 64 62 61 60 61 62 62 63 63 64 64 65 66 67 67 68 68 69 70 72 73 72 71 71 72 72 70 69 68 68 68 68 67 66 64 64 64 65 64 62 62 62 63 64 64 64 65 66 67 67 67 68 68 68 68 68 68 67 67 67 67 67 66 66 66 66 66 66 66 66 66 66 66 66 66 66 66 66 66 67
60 60 61 61 61 60 59 59 60 61 62 63 64 64 64 64 64 64 65 67 67 67 67 68 69 71 72 72 72 72 73 72 71 70 70 69 68 68 68 67 65 63 63 64 63 62 61 61 61 62 62 62 62 63 64 64 65 65 65 66 66 66 66 66 66 65 65 65 65 65 65 64 64 64 64 64 64 64 65 65 65 65 66 66 66 67
61 60 59 58 57 57 57 58 59 61 62 63 64 64 64 63 63 64 65 67 67 65 65 66 68 70 70 70 71 71 72 71 70 70 70 68 67 67 68 67 65 63 63 63 63 62 60 60 61 61 61 61 61 61 62 62 63 63 63 64 64 64 64 65 65 65 65 65 65 65 65 64 64 65 65 65 65 65 65 66 66 66 67 67 67 68
67 65 63 61 60 60 60 60 61 62 63 63 64 64 63 63 63 64 65 66 64 63 63 66 67 68 68 69 69 70 70 70 70 70 68 65 65 67 69 66 64 62 63 63 63 62 61 61 61 61 61 61 61 61 62 62 62 63 63 63 64 64 64 65 65 65 65 66 66 66 66 66 66 67 67 67 67 68 68 68 68 69 69 69 70 70
69 68 66 65 63 63 63 63 63 63 64 64 64 64 63 63 63 63 64 64 62 61 63 65 66 66 66 67 67 68 68 70 71 69 66 63 64 67 68 64 62 62 62 62 61 61 62 62 62 61 61 61 62 62 62 62 63 63 64 64 64 65 65 66 66 66 67 67 67 68 68 68 69 69 69 70 70 70 71 71 71 71 71 72 72 73
67 66 65 64 63 63 63 63 63 63 64 64 63 63 63 63 63 63 63 63 62 61 62 63 64 64 64 64 64 65 67 69 69 68 65 63 65 67 66 63 61 62 62 61 59 59 61 62 62 61 60 61 61 62 62 62 63 63 64 64 65 65 66 66 66 67 67 68 68 69 69 69 70 70 71 71 72 72 72 73 73 73 73 74 74 75
62 62 61 61 61 61 62 62 63 63 63 63 62 62 62 62 62 62 62 61 61 61 61 61 62 63 63 62 63 64 66 67 67 65 63 63 65 67 66 63 61 62 63 61 60 59 60 61 62 62 61 60 61 62 62 62 62 62 63 64 64 65 66 66 66 67 68 68 69 69 70 70 71 71 72 72 73 73 74 74 74 74 75 75 75 76
57 57 58 59 59 60 60 61 61 61 61 61 61 60 60 60 60 60 60 60 60 60 60 60 61 61 61 61 62 63 64 65 65 64 63 63 64 66 66 64 63 63 63 63 62 61 61 61 62 63 62 61 61 62 62 63 63 63 63 63 64 65 66 66 66 67 68 69 69 70 70 71 71 72 72 73 73 74 74 75 75 75 75 76 76 76
53 54 55 56 57 58 58 59 59 59 59 58 58 58 57 57 58 58 58 59 59 59 60 60 60 60 60 60 61 62 63 64 64 63 62 62 63 65 66 65 64 63 64 63 63 63 62 63 63 63 63 63 63 63 63 63 64 64 64 64 65 66 66 67 67 68 68 69 70 70 71 71 72 72 73 73 74 74 75 75 75 76 76 76 76 76
52 53 54 55 55 56 56 57 57 57 56 56 56 56 56 56 56 57 58 58 59 59 59 59 60 60 60 60 60 61 62 63 63 63 62 61 62 64 65 65 64 64 64 64 64 64 64 64 64 64 64 64 65 65 65 65 65 65 65 66 66 66 67 67 68 68 69 69 70 71 71 72 72 73 73 74 74 74 75 75 75 76 76 76 76 76
52 53 54 54 55 55 55 56 56 56 56 56 56 56 56 56 56 57 57 58 58 58 58 59 59 59 60 60 60 61 62 63 63 62 62 62 63 63 64 64 65 65 64 64 65 66 65 65 66 66 65 65 66 66 67 67 66 66 66 67 67 67 67 67 68 68 68 69 69 70 71 71 71 72 72 73 73 73 74 74 74 74 74 74 74 74
51 52 53 54 54 54 55 55 55 55 55 56 56 56 56 56 56 56 57 58 58 58 58 59 59 60 60 60 61 61 62 63 63 62 62 62 63 63 63 64 65 65 64 64 65 66 66 66 66 66 66 66 66 66 67 67 66 65 66 67 67 67 66 67 67 67 67 67 68 69 69 69 69 70 70 71 71 71 71 71 72 72 72 72 72 72
50 51 52 52 52 53 53 54 54 55 55 55 55 55 55 55 56 56 57 57 58 58 58 59 60 60 60 61 61 61 62 62 62 62 62 63 63 63 63 64 64 65 64 64 65 65 65 65 65 66 66 66 66 66 66 66 65 65 65 66 65 65 65 65 65 65 65 65 66 66 66 66 67 67 67 68 68 68 68 68 68 68 68 68 68 68
49 49 50 50 50 51 51 52 53 53 54 54 54 55 55 55 55 56 56 57 57 57 58 58 59 59 59 60 60 60 61 61 61 62 62 62 62 62 62 63 63 64 64 64 64 64 64 64 65 65 65 65 65 65 65 64 64 63 64 64 63 63 63 63 63 62 62 62 63 63 63 63 63 63 63 63 63 63 63 64 64 64 64 64 64 64
46 47 47 48 49 49 50 50 51 52 52 52 53 53 54 54 54 55 55 56 56 56 57 57 57 58 58 58 58 59 59 60 60 60 60 61 61 61 62 62 62 63 63 63 63 63 63 63 63 64 63 63 63 63 63 62 62 62 61 60 60 61 61 60 59 59 59 60 59 59 59 59 59 58 58 58 59 59 59 59 59 60 60 59 59 59
44 44 45 46 46 47 47 48 49 49 49 50 50 51 52 52 52 53 53 54 54 54 55 55 56 56 57 57 57 57 58 58 58 59 59 59 60 60 60 60 61 61 61 61 61 61 61 61 61 61 61 61 60 60 60 60 60 59 57 57 57 58 59 57 56 56 56 57 56 56 55 55 55 55 54 54 54 54 54 54 55 55 55 55 55 55
42 43 43 44 44 44 45 46 46 46 47 47 48 49 49 50 50 50 51 51 52 53 53 53 53 54 54 55 56 56 56 56 56 57 57 57 57 57 58 58 58 58 58 58 58 59 59 58 58 58 58 58 57 56 57 57 57 56 54 54 55 56 55 55 54 54 53 53 53 53 52 52 52 52 52 51 51 51 51 51 51 52 52 52 52 52
41 41 42 42 42 42 43 43 43 44 45 45 46 46 47 47 48 48 49 49 50 51 51 51 51 52 52 52 53 54 54 54 54 54 54 54 54 54 54 55 55 55 55 54 55 56 56 56 55 55 56 55 54 53 53 54 54 53 52 52 52 51 51 53 53 52 50 50 50 50 50 49 49 49 49 49 49 49 50 50 50 50 50 50 50 50
39 39 39 39 40 40 41 41 42 42 43 43 43 44 45 45 45 46 46 47 48 48 48 49 49 49 49 50 51 51 51 51 51 51 51 51 51 51 51 51 51 52 51 51 52 52 53 53 53 53 53 52 51 51 51 52 51 51 51 51 50 50 50 51 51 50 48 48 49 49 48 48 48 48 49 49 49 49 49 49 49 50 50 50 49 49
36 37 37 38 38 38 39 39 40 40 40 41 41 42 42 43 43 43 44 44 45 45 46 46 46 46 46 47 48 48 47 48 48 48 48 48 48 48 48 48 48 48 48 49 49 50 50 50 51 51 51 50 50 50 50 50 50 50 50 50 50 49 50 50 50 49 48 48 48 48 48 48 49 49 49 50 50 50 50 50 50 51 51 51 50 50
34 35 35 36 36 36 37 37 38 38 38 39 39 40 40 40 40 41 41 42 42 42 43 43 43 42 43 44 44 44 44 44 45 46 45 45 45 45 45 45 45 45 45 46 46 47 48 48 49 49 49 49 49 49 50 50 50 50 50 50 50 50 50 50 49 49 49 49 49 49 50 50 50 50 51 51 52 52 52 52 52 52 52 52 52 52
33 33 33 33 34 34 35 35 35 35 36 36 37 37 38 38 38 38 39 39 40 40 40 40 40 40 41 41 41 41 41 41 42 43 43 43 43 42 42 42 42 43 43 43 43 44 45 45 46 47 47 47 48 49 49 49 49 50 50 51 50 50 50 50 50 50 50 50 50 51 51 51 51 51 52 52 52 52 53 53 53 53 53 53 53 53
30 31 31 31 32 32 32 33 33 33 34 34 35 35 35 35 36 36 36 37 37 37 37 37 37 38 38 39 39 39 39 39 40 40 40 40 40 40 40 40 40 40 40 40 41 41 42 42 43 43 44 45 46 47 48 48 48 48 49 50 50 50 50 50 50 50 50 50 51 51 51 51 51 51 52 52 52 52 52 52 52 52 52 52 52 52
29 29 29 30 30 30 30 31 31 31 32 32 32 33 33 33 33 34 34 35 35 35 35 35 36 36 36 37 37 37 37 38 38 38 39 39 39 39 39 39 38 38 38 38 39 39 39 40 40 41 41 42 43 44 45 46 46 46 46 47 47 47 48 48 49 49 49 49 50 50 50 50 50 50 50 50 50 50 50 50 50 50 50 50 50 50
27 28 28 28 28 29 29 29 29 29 30 30 30 31 31 31 31 32 32 33 33 33 34 34 34 34 35 35 36 36 36 36 37 37 37 38 38 38 38 38 38 38 38 38 38 38 39 39 39 39 40 40 40 41 42 43 43 43 43 43 44 44 44 45 46 46 46 46 47 47 47 47 47 47 47 47 47 48 48 47 47 47 47 47 47 47
26 26 26 27 27 27 27 28 28 28 28 29 29 29 29 30 30 30 31 31 31 32 32 32 33 33 33 34 34 34 35 35 35 36 36 37 37 37 37 37 37 37 37 38 38 38 38 38 38 39 39 38 38 38 39 39 40 39 39 40 40 41 41 42 42 43 43 43 43 44 44 44 44 44 44 44 44 44 45 45 45 45 45 44 44 44
Wind_Direction
238 240 242 244 246 248 248 247 245 243 242 242 243 244 246 247 249 250 251 252 252 253 253 252 251 250 250 250 250 250 251 251 252 253 253 253 253 253 253 253 253 253 253 253 254 254 254 255 255 256 256 257 257 258 259 259 260 261 262 263 264 265 266 267 268 269 270 271 272 272 273 274 276 278 279 279 279 279 278 278 277 277 277 278 279 280
238 240 243 245 247 249 249 247 244 242 241 242 243 245 247 249 250 251 252 252 253 253 253 252 251 250 249 249 249 250 251 252 253 254 254 254 254 254 254 254 254 254 254 254 254 255 255 256 256 257 257 258 258 259 260 260 261 262 263 264 264 265 266 267 268 269 270 271 272 273 274 275 276 278 279 279 279 278 277 276 275 275 276 277 278 277
238 242 245 247 249 249 248 246 243 241 241 242 244 246 249 251 252 253 253 253 253 252 252 251 250 249 249 249 249 250 252 253 255 255 256 256 255 255 255 255 255 255 255 256 256 257 257 258 259 259 260 260 261 261 262 262 263 263 264 265 266 266 267 268 268 269 270 271 273 274 275 275 276 277 277 277 277 276 276 274 274 274 275 275 274 274
238 242 245 247 248 248 247 246 243 241 241 242 244 246 249 251 253 254 254 253 252 252 251 250 250 250 250 250 251 252 253 254 255 256 256 256 256 256 256 256 257 257 257 258 258 259 259 260 261 262 263 263 264 264 264 265 265 265 266 266 267 268 268 268 268 269 270 271 273 274 275 276 276 275 275 275 274 274 273 272 272 272 272 271 271 270
238 240 243 244 245 245 244 244 242 241 241 242 243 245 248 251 253 254 254 253 252 251 250 250 250 250 251 252 253 254 255 256 257 258 258 257 257 257 257 257 258 258 258 259 260 260 261 261 262 263 264 265 266 266 267 267 267 268 268 268 268 268 268 267 267 268 269 271 273 275 275 275 274 273 272 272 271 270 270 270 270 269 268 267 267 267
239 240 241 242 243 242 241 240 240 241 241 242 242 244 246 250 253 254 253 252 251 250 249 249 250 251 253 255 256 257 258 259 260 260 260 260 260 259 259 259 259 259 259 260 260 261 261 262 262 262 263 264 265 266 267 268 268 269 269 270 269 267 267 267 267 268 269 271 273 274 274 274 272 271 270 269 268 268 268 269 268 267 265 264 264 265
241 241 242 242 242 241 240 238 238 239 240 241 241 243 246 250 252 253 252 251 250 249 249 250 251 253 255 257 259 260 261 262 263 263 263 263 262 262 261 261 261 260 261 261 261 262 262 262 262 262 263 263 264 264 265 266 267 268 269 269 268 267 267 268 268 269 270 271 272 273 272 271 270 269 268 267 266 266 266 267 266 264 262 261 261 263
242 243 243 241 240 240 240 239 238 239 240 241 243 245 247 250 252 252 251 250 249 248 249 250 252 254 257 259 261 263 264 265 265 265 265 265 264 263 262 262 262 262 261 262 262 262 262 262 262 262 262 263 263 263 264 264 265 266 267 267 267 268 269 270 270 270 270 271 271 271 270 269 268 267 267 266 265 265 265 265 264 261 259 258 259 261
243 244 243 240 239 239 240 240 240 240 242 244 245 247 248 249 250 250 250 249 248 248 249 251 253 255 258 261 264 265 266 267 267 267 267 266 265 264 263 262 262 262 262 262 261 262 262 262 262 262 262 263 263 263 263 264 264 264 264 265 265 266 267 268 269 270 270 270 269 268 268 267 267 266 265 265 264 264 263 263 261 259 256 256 257 259
242 243 241 239 238 238 238 240 241 242 243 245 246 247 248 248 248 247 247 247 248 249 250 252 255 257 260 263 265 267 268 268 269 268 268 267 266 265 264 263 262 261 261 261 261 261 261 261 261 261 262 263 263 264 264 263 263 263 263 263 264 264 264 264 266 267 268 268 268 267 266 266 265 265 264 264 263 263 262 261 259 256 254 254 255 256
240 240 240 239 238 238 238 239 241 242 243 244 245 245 246 245 245 245 245 246 247 249 251 254 256 259 261 263 265 267 268 268 269 269 268 268 267 265 264 263 262 261 260 260 260 260 260 260 260 261 261 262 263 263 263 263 263 262 262 263 263 263 263 263 264 265 266 267 267 267 267 266 265 264 263 263 262 262 261 259 257 254 253 253 254 255
237 237 238 238 238 238 238 239 239 240 240 241 241 242 242 243 243 243 244 245 247 250 252 255 257 259 260 261 262 264 265 266 267 267 267 267 266 265 264 263 262 261 260 259 259 259 259 259 260 260 261 261 262 262 262 262 262 263 263 263 263 263 263 263 263 264 265 266 266 266 266 265 264 263 262 262 262 261 260 259 257 255 254 255 256 257
234 233 233 234 235 236 236 236 236 237 237 237 238 239 240 241 242 243 244 246 248 251 253 255 257 258 259 259 260 260 261 262 263 264 265 265 265 265 264 263 262 260 260 259 259 259 259 259 260 260 260 261 261 261 261 262 262 262 263 263 263 263 263 263 263 263 263 263 262 261 261 260 260 259 259 259 260 260 259 258 257 256 256 257 258 259
230 229 229 230 232 233 233 233 233 234 234 234 235 236 239 241 242 243 245 247 249 251 253 255 256 257 257 257 258 258 259 260 261 262 262 263 263 263 263 262 262 261 260 260 259 259 259 259 259 259 260 260 260 260 261 261 261 261 262 263 263 263 263 262 261 260 258 257 256 255 255 255 255 255 255 256 256 257 257 256 256 256 256 257 258 259
226 226 228 230 231 232 232 231 232 233 233 233 233 235 238 240 242 243 245 247 249 250 251 253 254 255 255 255 256 256 257 258 259 259 259 260 260 261 261 261 261 261 260 260 260 260 259 259 259 259 259 259 259 259 259 259 260 260 262 262 263 263 262 261 258 256 254 253 252 253 253 253 253 253 253 254 254 255 255 256 256 256 256 257 258 259
224 224 226 228 230 230 230 231 233 235 235 234 233 235 238 240 241 242 243 244 246 247 248 249 250 251 252 253 253 254 254 255 255 256 256 256 257 257 258 258 259 259 259 259 259 259 259 259 258 257 257 257 257 257 257 257 258 259 260 261 261 261 260 258 256 254 253 253 253 254 255 255 254 253 253 253 254 255 255 256 256 257 257 258 259 260
225 224 223 224 224 224 226 230 235 238 238 237 235 235 236 238 239 239 239 241 242 244 245 246 247 248 249 250 251 251 251 251 252 252 252 253 253 254 255 255 256 257 258 258 258 258 258 257 256 256 255 254 254 254 254 255 255 257 258 259 259 259 258 256 254 253 253 254 256 257 258 257 256 254 253 253 254 254 255 256 257 257 258 259 260 261
227 225 224 222 221 221 223 227 232 237 239 239 237 236 236 237 238 237 237 238 239 240 241 243 244 245 246 247 247 247 247 248 248 249 250 250 251 252 252 253 254 255 256 256 256 256 256 256 255 254 253 253 252 252 252 253 254 255 256 257 257 257 256 254 253 253 253 255 257 258 259 259 258 256 254 254 254 255 256 257 258 259 260 261 262 264
232 230 228 227 226 226 226 228 230 233 237 239 240 239 239 239 239 239 238 238 237 238 239 240 240 241 242 243 244 244 244 244 246 247 248 248 249 250 251 251 252 253 254 254 255 255 255 255 255 254 254 253 253 252 252 253 254 255 256 256 257 256 255 254 253 253 254 255 256 258 258 258 258 257 255 255 255 257 258 260 261 263 264 265 266 267
237 236 234 234 233 234 235 236 238 239 240 242 244 245 245 244 243 242 241 240 240 239 239 239 239 239 240 240 241 242 242 243 244 245 247 247 248 249 249 250 251 252 253 254 254 255 255 255 255 255 255 255 255 255 255 255 255 256 257 257 257 257 256 255 254 254 254 255 256 256 257 257 257 257 256 256 256 257 259 260 262 263 265 266 267 268
241 241 240 240 240 241 243 244 246 247 249 250 251 252 251 250 249 247 245 244 243 242 241 239 239 240 240 240 241 241 242 243 245 246 247 248 249 249 249 250 251 252 253 254 255 255 255 256 256 256 256 256 256 256 256 256 257 257 258 258 258 258 257 256 255 255 255 256 256 256 257 257 257 257 258 258 258 259 260 261 262 263 264 265 266 267
243 244 245 245 246 247 248 249 251 253 254 256 256 257 256 256 254 252 250 248 246 245 244 242 242 242 242 242 242 242 243 245 247 248 249 250 251 250 250 251 252 253 254 255 255 255 255 256 256 256 255 256 256 256 257 257 257 258 258 259 259 259 258 258 257 257 257 257 257 257 258 258 259 259 260 260 261 262 262 263 263 264 265 266 267 267
243 245 247 249 251 252 253 254 255 257 258 258 259 259 259 258 257 256 254 252 250 248 248 247 246 245 245 245 245 245 247 248 249 249 251 253 253 253 253 254 254 255 255 256 256 256 256 256 256 256 256 256 256 256 257 257 258 258 259 259 259 260 259 259 259 259 259 259 259 259 260 260 261 261 262 263 263 264 264 264 265 266 266 267 268 269
243 245 247 250 252 254 256 257 258 258 259 259 259 259 259 259 259 258 257 255 253 251 250 250 250 250 250 250 250 250 251 252 252 253 254 256 256 256 256 257 257 257 257 258 258 258 258 257 257 257 257 257 257 257 258 258 259 259 260 260 260 261 261 261 261 261 261 261 261 261 262 262 263 263 264 264 265 265 266 266 266 267 268 268 269 270
244 245 247 249 252 254 256 257 258 258 258 258 258 258 258 259 259 258 258 257 256 254 253 253 254 255 255 255 256 256 256 256 257 257 258 259 259 259 259 260 260 260 260 260 260 260 260 259 259 259 258 258 258 259 259 260 260 260 261 261 262 262 262 262 263 263 263 263 263 264 264 264 265 265 266 266 266 267 267 268 268 268 269 270 270 271
244 244 245 247 248 250 252 253 255 255 256 256 257 257 257 258 258 258 258 258 257 256 255 255 256 256 257 258 260 260 260 260 261 261 261 262 262 263 262 262 262 262 262 262 262 262 261 261 261 261 260 260 260 260 260 260 261 261 262 262 262 263 263 264 264 264 265 265 265 266 266 266 267 267 267 268 268 268 269 269 270 270 270 271 271 271
242 242 243 244 245 247 248 250 251 253 254 255 255 256 257 258 258 259 259 258 257 257 257 257 257 257 258 260 261 262 262 263 264 264 264 264 265 265 265 264 264 264 264 264 264 264 263 262 262 262 262 261 261 261 261 261 261 262 262 262 263 263 264 264 265 265 266 266 267 267 268 268 268 269 269 270 270 270 271 271 271 272 272 272 272 273
243 243 243 244 246 247 249 251 252 253 254 255 256 256 257 258 258 258 258 257 257 257 257 257 257 258 259 260 261 261 262 264 265 265 265 266 266 266 266 266 266 265 265 265 265 265 264 263 263 263 263 262 262 262 262 262 262 262 263 263 264 264 265 265 266 266 267 267 268 268 269 269 270 271 271 271 272 272 272 273 273 273 273 274 274 274
246 247 248 249 250 252 254 255 256 256 257 257 258 258 258 258 257 257 257 257 257 257 258 258 258 258 259 260 260 261 262 263 264 265 266 266 267 267 267 267 267 267 266 266 266 266 266 265 264 264 264 264 263 263 263 263 263 263 264 264 264 265 265 266 266 267 267 268 269 269 270 270 271 272 272 273 273 273 273 274 274 274 275 275 275 275
247 250 251 252 253 254 256 257 257 258 258 259 259 258 258 257 256 256 256 257 257 257 258 258 258 259 260 260 261 262 262 263 263 264 265 266 267 267 267 268 268 268 267 267 267 267 267 267 266 265 265 265 265 265 265 264 264 265 265 265 265 266 266 266 267 268 268 269 269 270 270 271 271 272 272 273 273 273 274 274 274 275 275 275 275 276
246 249 251 252 253 254 255 256 257 257 257 258 257 257 256 256 255 255 255 256 257 257 258 258 259 259 260 261 261 262 262 262 263 264 265 266 266 267 267 268 268 268 268 268 268 268 268 268 267 267 266 266 267 267 266 266 266 266 266 266 266 266 267 267 267 268 268 269 269 270 270 270 271 271 272 272 272 273 273 273 274 274 274 275 275 275
243 246 248 249 251 252 253 253 254 255 255 254 254 254 253 253 253 253 254 255 256 257 258 258 259 260 260 260 261 261 261 262 263 264 264 265 265 266 267 268 268 268 268 268 268 267 268 268 268 268 267 267 267 267 267 267 267 267 267 267 267 267 267 268 268 268 268 269 269 269 270 270 270 271 271 271 271 272 272 272 273 273 273 274 274 274
241 242 244 246 247 248 249 250 251 251 251 251 251 251 251 251 252 253 254 256 257 258 258 259 259 260 260 260 260 260 261 262 263 264 264 264 264 265 266 267 267 267 268 268 268 268 267 268 268 268 268 268 268 268 268 268 268 268 268 268 268 268 268 268 268 268 268 269 269 269 269 269 270 270 270 270 271 271 271 271 272 272 273 273 273 274
240 241 242 243 245 246 246 247 248 248 249 249 250 250 251 252 253 254 255 256 257 258 259 259 260 260 260 260 261 261 261 262 263 263 264 264 264 265 265 266 267 267 267 268 268 268 268 268 268 269 269 269 269 268 268 269 269 269 269 269 269 269 269 269 269 269 269 269 269 269 269 269 269 270 270 270 270 271 271 271 271 272 272 273 273 273
243 244 244 245 245 246 247 248 248 249 250 250 251 252 253 254 255 256 256 257 258 258 259 259 260 260 261 261 261 261 262 262 263 263 264 264 264 264 265 266 267 267 267 268 268 268 268 268 269 269 269 270 270 270 270 270 270 270 270 270 270 270 270 270 270 270 270 269 269 269 270 270 270 270 270 270 270 271 271 271 272 272 272 273 273 274
247 247 247 248 248 249 250 250 251 252 252 253 254 255 255 256 256 256 257 257 258 258 259 259 259 260 261 261 262 262 262 263 263 264 264 264 265 265 265 266 267 267 267 268 268 269 269 269 270 270 270 271 271 271 271 271 271 271 271 272 271 271 271 271 270 270 270 270 270 270 270 270 270 270 271 271 271 271 272 272 272 272 273 273 274 274
250 250 250 251 251 252 252 253 254 254 255 256 256 257 257 257 257 257 258 258 259 259 260 260 260 261 261 262 262 263 263 264 264 265 265 265 266 266 266 267 267 268 268 268 269 269 269 270 270 271 271 271 271 272 272 272 272 272 272 272 272 272 271 271 271 271 271 271 271 271 271 271 271 271 271 271 272 272 272 272 272 273 273 273 274 274
252 252 252 253 253 254 255 255 256 256 257 257 258 258 258 258 258 259 259 259 260 260 261 261 262 263 263 263 264 264 265 265 266 267 267 267 267 267 267 267 268 268 269 269 269 269 270 270 271 271 271 272 272 272 272 272 273 273 272 272 272 272 272 272 272 272 271 271 271 271 271 271 272 272 272 272 272 272 272 273 273 273 273 274 274 274
253 253 254 254 255 255 256 256 257 257 258 258 259 259 259 260 260 260 261 261 261 262 262 263 263 264 265 265 265 266 266 267 267 268 268 268 268 268 268 268 269 269 270 270 270 270 270 271 271 271 271 272 272 272 272 272 272 273 273 273 273 273 273 272 272 272 272 272 272 272 272 272 272 272 272 272 272 273 273 273 273 273 273 274 274 274
253 253 254 255 255 256 256 257 257 258 259 259 260 260 260 261 261 261 262 262 263 263 263 264 264 265 266 266 266 267 267 267 268 268 268 269 269 269 269 269 269 269 270 270 270 270 271 271 271 271 271 272 272 272 272 272 272 272 272 272 273 273 273 272 272 273 273 273 273 273 273 273 273 273 273 273 273 273 273 273 273 274 274 274 274 275
253 254 254 255 255 256 256 257 257 258 259 259 260 260 261 261 261 262 262 263 263 264 264 265 265 266 266 266 267 267 267 268 268 268 269 269 269 269 269 269 269 269 270 270 270 270 270 270 270 271 271 271 271 272 272 272 272 272 272 272 272 272 273 273 273 273 273 273 273 274 274 274 274 274 274 274 274 274 274 274 274 274 275 275 275 275
253 254 254 255 255 256 256 257 257 258 258 259 259 260 261 261 261 262 263 263 264 264 264 265 265 266 266 266 267 267 267 268 268 268 268 268 269 269 269 269 269 269 269 269 270 270 270 270 270 270 271 271 271 271 271 271 272 272 272 272 272 272 273 274 274 274 273 274 274 274 274 274 274 274 274 274 275 274 275 275 275 275 275 275 275 275
253 254 255 255 256 256 257 257 258 258 259 259 260 260 261 262 262 263 263 264 264 265 265 265 266 266 266 266 267 267 267 267 268 268 268 268 269 269 269 269 269 269 269 269 269 269 270 270 270 270 271 271 271 271 271 271 271 272 272 272 272 273 274 274 274 274 274 274 274 275 275 275 275 275 275 275 275 275 275 275 275 275 275 275 275 275
253 254 255 256 256 257 257 258 258 259 259 260 261 261 262 262 263 264 264 264 265 265 265 266 266 266 266 266 267 267 267 267 267 268 268 268 268 269 269 269 269 269 269 269 269 269 270 270 271 271 271 271 271 271 271 271 271 272 272 272 273 273 274 274 274 275 275 275 275 275 275 276 276 276 276 276 276 275 275 275 275 275 275 275 275 275
254 255 255 256 257 257 258 258 259 259 260 260 261 261 262 263 263 263 264 264 264 265 265 265 266 266 266 266 266 267 267 267 267 268 268 268 268 269 269 269 269 269 269 269 269 269 269 270 270 271 271 271 271 271 271 271 271 271 272 272 273 273 273 273 273 274 274 275 275 275 275 275 276 276 276 276 275 275 275 275 275 275 275 275 275 275
254 255 255 256 257 257 257 258 258 259 260 260 261 261 261 262 262 263 263 263 264 264 265 265 265 266 266 266 266 266 267 267 267 267 268 268 268 269 269 269 269 269 269 269 269 269 269 270 270 270 271 271 271 270 270 270 270 271 271 272 272 272 272 273 273 273 273 273 274 274 275 275 275 275 275 275 275 275 275 275 275 274 274 274 274 275
254 254 255 255 256 256 257 257 258 258 259 259 260 260 261 261 262 262 262 263 263 263 264 264 265 265 265 265 266 266 266 267 267 267 267 268 268 268 269 269 269 269 269 269 269 269 269 269 269 270 270 270 270 270 270 270 270 270 271 271 271 272 272 272 272 272 272 273 273 274 274 274 275 275 275 275 275 275 275 275 275 275 275 274 275 275
252 253 253 254 254 255 256 256 257 257 258 258 259 260 260 261 261 261 262 262 263 263 263 264 264 264 264 265 265 265 266 266 266 267 267 267 267 268 268 268 268 268 268 268 269 269 269 269 269 269 269 269 269 270 270 270 270 270 270 271 271 272 272 272 272 272 273 273 273 273 274 274 275 275 275 275 275 275 275 275 276 276 275 275 275 275
250 251 252 253 253 254 255 255 256 257 257 258 259 259 260 260 261 261 262 262 262 263 263 264 264 264 264 265 265 265 266 266 266 266 267 267 267 267 267 267 268 268 268 268 268 268 268 268 269 269 269 269 269 270 270 270 271 271 271 271 272 272 272 272 273 273 273 273 273 274 274 274 274 275 275 275 275 276 276 276 276 276 276 276 276 276
249 250 251 252 252 253 254 255 256 256 257 258 259 259 260 261 261 261 262 263 263 264 264 264 264 265 265 265 266 266 266 266 266 267 267 267 267 267 267 267 268 268 268 268 268 268 269 269 269 269 269 269 270 270 271 271 272 272 272 272 273 273 273 273 273 273 274 274 274 274 274 275 275 275 275 275 275 275 275 276 276 276 276 276 276 276
249 250 251 251 252 253 254 255 256 257 257 258 259 259 260 261 262 262 263 264 264 265 265 265 266 266 266 266 267 267 267 267 268 268 268 268 268 268 268 268 268 268 268 268 269 269 269 269 270 270 271 270 270 270 271 272 273 273 273 273 273 273 273 273 273 274 274 274 274 274 274 274 275 275 275 274 275 275 275 275 275 276 276 276 276 276
Height
5676 5677 5678 5680 5681 5682 5682 5684 5685 5686 5687 5689 5690 5691 5692 5694 5695 5696 5696 5697 5698 5699 5701 5701 5703 5704 5705 5706 5707 5708 5709 5710 5711 5712 5714 5715 5716 5716 5717 5718 5719 5720 5721 5721 5722 5722 5723 5724 5724 5725 5725 5726 5726 5726 5727 5727 5727 5728 5728 5728 5729 5729 5729 5729 5729 5729 5729 5730 5731 5731 5730 5729 5728 5727 5726 5726 5725 5725 5724 5724 5725 5726 5726 5724 5724 5724
5671 5673 5675 5676 5677 5678 5679 5680 5682 5683 5684 5686 5687 5688 5689 5690 5691 5691 5693 5694 5694 5695 5696 5697 5699 5700 5701 5702 5703 5704 5705 5706 5707 5708 5709 5710 5711 5711 5712 5713 5714 5715 5716 5716 5717 5717 5718 5719 5719 5720 5720 5721 5721 5722 5722 5722 5723 5723 5723 5724 5724 5724 5724 5724 5725 5725 5725 5725 5725 5726 5725 5724 5723 5722 5721 5721 5721 5720 5720 5720 5721 5722 5722 5721 5720 5719
5668 5670 5671 5672 5674 5675 5676 5677 5678 5680 5681 5682 5684 5685 5686 5686 5687 5688 5689 5690 5691 5691 5692 5694 5695 5696 5697 5698 5699 5700 5701 5701 5702 5703 5704 5705 5706 5706 5707 5708 5709 5710 5711 5711 5712 5713 5713 5714 5714 5715 5715 5716 5716 5717 5717 5718 5718 5718 5719 5719 5719 5719 5720 5720 5720 5720 5720 5720 5720 5720 5720 5719 5718 5717 5716 5716 5716 5716 5716 5716 5717 5718 5718 5716 5715 5714
5665 5667 5669 5671 5672 5673 5673 5674 5675 5676 5677 5678 5680 5681 5682 5683 5683 5684 5685 5686 5687 5688 5689 5690 5691 5692 5693 5694 5695 5696 5697 5697 5698 5699 5699 5700 5701 5702 5703 5704 5705 5705 5706 5707 5707 5708 5709 5709 5710 5710 5710 5711 5711 5712 5712 5713 5713 5713 5714 5714 5714 5715 5715 5715 5715 5716 5716 5716 5716 5715 5715 5715 5714 5713 5712 5712 5712 5712 5712 5713 5714 5715 5714 5712 5711 5710
5661 5664 5666 5669 5670 5670 5671 5672 5673 5673 5674 5675 5676 5676 5678 5679 5679 5680 5681 5682 5683 5684 5685 5686 5687 5688 5689 5690 5691 5692 5693 5693 5694 5695 5695 5696 5697 5697 5698 5699 5700 5701 5701 5702 5703 5703 5704 5704 5705 5705 5706 5706 5706 5707 5707 5707 5708 5708 5709 5709 5710 5710 5710 5710 5711 5711 5711 5711 5711 5711 5711 5711 5711 5709 5708 5708 5707 5707 5707 5709 5710 5711 5710 5709 5707 5706
5656 5659 5662 5665 5666 5666 5667 5668 5669 5669 5670 5671 5671 5672 5673 5674 5675 5676 5678 5679 5680 5680 5681 5682 5683 5684 5685 5686 5687 5688 5689 5689 5690 5691 5691 5692 5693 5693 5694 5695 5696 5696 5696 5697 5698 5698 5699 5700 5700 5701 5701 5701 5702 5702 5702 5702 5703 5703 5704 5704 5705 5706 5706 5706 5706 5706 5706 5707 5707 5706 5706 5706 5706 5706 5706 5704 5703 5703 5703 5704 5705 5706 5706 5705 5703 5702
5652 5655 5658 5661 5662 5662 5663 5663 5664 5665 5666 5667 5668 5669 5670 5670 5671 5673 5674 5675 5676 5676 5678 5679 5680 5680 5681 5682 5683 5684 5684 5685 5686 5686 5687 5688 5689 5689 5690 5690 5691 5691 5692 5692 5693 5694 5694 5695 5695 5696 5696 5696 5697 5697 5697 5698 5698 5698 5699 5699 5700 5701 5701 5701 5701 5701 5702 5702 5703 5703 5702 5702 5703 5703 5703 5701 5700 5700 5700 5700 5700 5700 5700 5699 5698 5697
5647 5650 5653 5655 5657 5658 5659 5659 5659 5661 5662 5663 5664 5665 5666 5666 5668 5669 5669 5670 5671 5673 5674 5675 5676 5677 5677 5678 5679 5679 5680 5681 5681 5682 5683 5683 5684 5685 5685 5686 5686 5686 5687 5687 5688 5689 5689 5690 5690 5691 5691 5691 5692 5692 5693 5693 5693 5694 5694 5694 5696 5696 5696 5696 5696 5696 5697 5698 5698 5698 5698 5698 5698 5699 5699 5698 5697 5696 5696 5696 5696 5695 5694 5693 5692 5692
5643 5645 5647 5649 5651 5653 5654 5655 5655 5656 5657 5658 5659 5660 5661 5662 5663 5664 5665 5666 5667 5669 5670 5671 5672 5673 5673 5674 5674 5675 5675 5676 5676 5677 5678 5679 5679 5680 5681 5681 5681 5681 5682 5682 5683 5684 5684 5685 5685 5686 5686 5687 5687 5687 5688 5688 5689 5689 5689 5690 5691 5692 5692 5692 5692 5692 5692 5693 5693 5693 5692 5693 5693 5693 5693 5692 5692 5691 5691 5691 5691 5691 5690 5689 5688 5687
5638 5640 5641 5643 5646 5648 5649 5651 5651 5652 5653 5654 5655 5656 5656 5657 5658 5659 5661 5662 5663 5664 5666 5667 5668 5668 5669 5669 5670 5670 5671 5671 5671 5672 5672 5673 5674 5675 5676 5676 5676 5677 5677 5678 5679 5679 5680 5680 5681 5681 5682 5682 5682 5682 5683 5684 5684 5684 5685 5685 5686 5687 5688 5688 5688 5688 5688 5689 5689 5689 5688 5689 5689 5688 5687 5687 5686 5686 5686 5686 5686 5686 5686 5685 5684 5683
5634 5636 5637 5639 5641 5643 5645 5646 5647 5648 5649 5650 5651 5651 5652 5653 5654 5655 5656 5658 5659 5660 5662 5663 5663 5664 5665 5665 5666 5666 5666 5666 5666 5666 5667 5668 5669 5670 5671 5671 5672 5672 5673 5673 5674 5675 5676 5676 5677 5677 5677 5677 5677 5678 5678 5679 5679 5679 5680 5681 5681 5682 5683 5684 5684 5684 5684 5685 5685 5685 5685 5684 5684 5683 5682 5682 5681 5681 5681 5682 5682 5682 5681 5681 5680 5679
5630 5632 5634 5635 5636 5637 5639 5641 5641 5643 5644 5646 5646 5646 5647 5647 5649 5650 5652 5653 5654 5656 5657 5658 5659 5660 5661 5662 5662 5662 5663 5663 5663 5663 5663 5663 5664 5665 5665 5666 5666 5667 5668 5669 5670 5671 5671 5672 5672 5672 5672 5672 5673 5673 5673 5673 5674 5674 5675 5676 5676 5677 5678 5679 5679 5679 5679 5680 5680 5680 5680 5680 5679 5679 5678 5677 5677 5677 5677 5678 5678 5677 5677 5676 5675 5673
5626 5628 5630 5630 5630 5631 5633 5635 5636 5638 5639 5640 5641 5641 5641 5641 5643 5646 5647 5648 5649 5651 5653 5654 5655 5656 5656 5657 5658 5658 5659 5659 5659 5659 5660 5660 5660 5660 5661 5661 5662 5663 5663 5664 5665 5666 5666 5666 5667 5667 5667 5668 5668 5668 5668 5669 5670 5670 5671 5671 5671 5672 5673 5673 5674 5674 5675 5676 5676 5676 5676 5675 5675 5674 5674 5673 5673 5673 5673 5673 5673 5673 5672 5671 5670 5669
5623 5624 5624 5624 5625 5626 5628 5630 5632 5633 5634 5634 5635 5636 5636 5637 5639 5642 5644 5644 5645 5647 5649 5650 5651 5652 5652 5653 5653 5654 5654 5654 5654 5654 5655 5655 5655 5656 5656 5657 5657 5658 5659 5660 5660 5660 5661 5662 5662 5662 5663 5663 5664 5664 5664 5664 5665 5666 5666 5667 5667 5668 5668 5669 5669 5670 5671 5672 5672 5671 5671 5670 5669 5669 5668 5668 5668 5668 5668 5668 5667 5667 5666 5666 5665 5664
5617 5618 5619 5619 5620 5622 5624 5626 5627 5628 5627 5628 5630 5632 5634 5635 5636 5638 5639 5640 5641 5643 5645 5646 5646 5647 5648 5649 5649 5649 5650 5650 5650 5650 5651 5651 5651 5652 5653 5653 5653 5654 5655 5656 5656 5656 5656 5657 5658 5658 5658 5659 5659 5659 5660 5660 5661 5661 5662 5662 5663 5664 5664 5664 5665 5665 5666 5666 5665 5665 5664 5664 5664 5663 5663 5663 5662 5662 5661 5661 5661 5661 5660 5659 5659 5658
5612 5613 5614 5615 5616 5617 5619 5620 5621 5621 5622 5624 5626 5628 5630 5631 5632 5633 5635 5636 5637 5638 5640 5641 5641 5642 5643 5644 5645 5645 5646 5646 5646 5647 5647 5648 5648 5648 5650 5650 5651 5651 5651 5651 5651 5651 5652 5653 5654 5654 5654 5655 5655 5655 5656 5656 5657 5658 5658 5659 5659 5660 5660 5660 5660 5660 5660 5660 5660 5660 5659 5659 5659 5659 5659 5658 5657 5657 5656 5656 5656 5655 5655 5654 5653 5653
5609 5609 5610 5611 5612 5613 5615 5616 5616 5617 5618 5620 5622 5625 5626 5627 5628 5629 5631 5632 5633 5634 5635 5636 5637 5637 5638 5639 5640 5641 5641 5642 5642 5643 5644 5644 5645 5645 5646 5647 5647 5647 5647 5647 5647 5648 5648 5649 5650 5650 5650 5651 5651 5651 5652 5653 5654 5654 5655 5655 5655 5656 5656 5656 5656 5656 5655 5655 5655 5655 5655 5655 5655 5655 5654 5654 5653 5653 5652 5651 5651 5651 5650 5649 5648 5648
5605 5606 5606 5606 5607 5609 5611 5612 5613 5614 5615 5616 5618 5621 5622 5623 5624 5625 5626 5627 5628 5629 5630 5631 5632 5633 5634 5635 5635 5636 5637 5638 5639 5639 5639 5640 5640 5641 5642 5643 5644 5643 5643 5643 5644 5644 5645 5645 5645 5646 5646 5646 5647 5647 5648 5648 5649 5649 5650 5650 5651 5651 5651 5651 5651 5651 5650 5650 5650 5650 5650 5650 5650 5650 5649 5649 5648 5647 5647 5646 5646 5645 5644 5644 5643 5643
5601 5601 5602 5603 5603 5604 5606 5607 5609 5611 5612 5613 5615 5616 5618 5619 5620 5620 5621 5622 5623 5624 5625 5626 5628 5629 5630 5631 5631 5631 5633 5635 5635 5635 5635 5635 5636 5637 5638 5639 5639 5639 5639 5639 5640 5640 5641 5641 5641 5641 5641 5642 5642 5642 5643 5643 5644 5645 5645 5645 5645 5645 5646 5646 5646 5646 5645 5645 5645 5645 5645 5645 5645 5645 5645 5644 5644 5643 5642 5641 5641 5640 5640 5639 5638 5638
5595 5596 5598 5599 5600 5601 5602 5603 5604 5606 5608 5609 5611 5613 5614 5615 5616 5616 5616 5617 5618 5619 5621 5622 5623 5624 5625 5626 5627 5627 5628 5630 5631 5630 5630 5631 5631 5633 5633 5634 5635 5635 5635 5635 5635 5636 5636 5637 5637 5637 5637 5637 5638 5638 5638 5639 5639 5640 5640 5640 5640 5640 5640 5641 5641 5640 5640 5640 5640 5639 5639 5639 5639 5639 5639 5638 5638 5638 5637 5637 5636 5635 5635 5634 5634 5633
5590 5591 5593 5594 5596 5597 5598 5599 5600 5601 5602 5604 5606 5608 5610 5610 5611 5612 5613 5614 5615 5616 5618 5619 5620 5620 5621 5622 5623 5623 5623 5625 5626 5626 5625 5626 5627 5628 5629 5630 5630 5631 5631 5631 5631 5632 5632 5632 5632 5633 5633 5633 5634 5634 5634 5634 5635 5635 5635 5635 5635 5635 5635 5635 5635 5635 5635 5635 5634 5634 5634 5633 5633 5633 5633 5632 5632 5631 5631 5631 5630 5630 5629 5629 5628 5628
5586 5586 5587 5589 5591 5593 5594 5594 5595 5596 5598 5600 5601 5603 5604 5605 5606 5608 5609 5610 5611 5613 5614 5615 5616 5616 5617 5618 5619 5619 5618 5620 5621 5621 5620 5621 5622 5623 5624 5625 5626 5626 5626 5626 5626 5627 5628 5628 5628 5628 5629 5629 5629 5629 5630 5630 5630 5630 5630 5630 5630 5630 5630 5630 5630 5630 5630 5629 5629 5629 5629 5628 5628 5628 5627 5627 5626 5626 5626 5625 5625 5624 5623 5623 5622 5622
5583 5583 5583 5585 5587 5588 5589 5590 5591 5592 5594 5595 5597 5598 5598 5600 5601 5603 5605 5606 5608 5609 5610 5611 5611 5612 5613 5614 5614 5614 5614 5614 5616 5616 5616 5617 5617 5617 5618 5620 5622 5622 5621 5621 5621 5623 5624 5624 5624 5624 5624 5625 5625 5625 5625 5625 5625 5625 5625 5625 5625 5625 5625 5625 5625 5625 5625 5624 5624 5624 5623 5623 5623 5622 5622 5622 5621 5621 5620 5620 5619 5619 5618 5618 5617 5617
5580 5580 5580 5581 5583 5584 5584 5585 5586 5587 5589 5591 5592 5593 5594 5596 5597 5599 5600 5602 5604 5605 5606 5606 5607 5608 5608 5609 5609 5609 5609 5609 5611 5611 5612 5612 5612 5612 5613 5615 5617 5617 5616 5615 5616 5617 5619 5619 5618 5618 5619 5620 5620 5620 5619 5620 5620 5620 5620 5620 5620 5620 5620 5620 5620 5619 5619 5619 5619 5618 5618 5618 5617 5617 5617 5616 5616 5616 5615 5615 5614 5613 5613 5612 5612 5611
5576 5576 5577 5578 5579 5580 5581 5581 5582 5583 5585 5586 5588 5589 5590 5591 5593 5595 5596 5597 5599 5601 5602 5603 5603 5603 5603 5603 5604 5604 5604 5605 5606 5607 5608 5607 5607 5606 5608 5610 5612 5612 5611 5610 5610 5612 5614 5614 5613 5612 5613 5614 5614 5614 5614 5614 5614 5614 5614 5614 5614 5614 5614 5614 5614 5614 5614 5613 5613 5613 5612 5612 5612 5611 5611 5611 5611 5610 5610 5609 5609 5608 5608 5607 5607 5606
5572 5573 5574 5575 5576 5577 5578 5578 5579 5580 5581 5583 5584 5585 5586 5588 5589 5591 5592 5593 5594 5596 5597 5598 5599 5599 5598 5598 5599 5600 5600 5600 5601 5602 5603 5603 5602 5602 5602 5604 5606 5607 5606 5605 5605 5607 5609 5609 5607 5607 5607 5608 5609 5609 5608 5608 5609 5609 5609 5609 5609 5609 5609 5608 5608 5608 5608 5608 5607 5607 5607 5607 5606 5606 5606 5606 5605 5605 5604 5604 5603 5603 5602 5602 5601 5601
5568 5569 5570 5571 5572 5573 5575 5576 5576 5577 5579 5580 5581 5582 5583 5584 5586 5588 5589 5589 5589 5591 5593 5594 5595 5594 5594 5595 5596 5596 5595 5595 5596 5597 5598 5598 5598 5597 5597 5598 5601 5602 5602 5601 5600 5601 5603 5604 5603 5602 5602 5603 5603 5604 5603 5603 5603 5603 5604 5604 5603 5603 5603 5603 5603 5603 5603 5602 5602 5602 5602 5601 5601 5601 5601 5600 5600 5599 5599 5599 5598 5598 5597 5597 5596 5596
5564 5565 5566 5568 5569 5570 5571 5572 5574 5575 5576 5577 5578 5579 5580 5581 5583 5584 5584 5583 5584 5586 5589 5590 5590 5589 5589 5591 5592 5592 5591 5591 5591 5592 5592 5593 5594 5593 5591 5592 5595 5597 5598 5596 5595 5596 5597 5599 5598 5597 5597 5597 5598 5599 5599 5598 5598 5598 5599 5599 5598 5598 5598 5598 5598 5598 5597 5597 5597 5597 5596 5596 5596 5596 5595 5595 5595 5594 5594 5593 5593 5593 5592 5592 5591 5591
5560 5561 5562 5564 5565 5566 5567 5569 5570 5571 5572 5573 5574 5575 5576 5577 5579 5580 5579 5578 5580 5583 5585 5585 5584 5584 5585 5586 5587 5587 5587 5588 5587 5586 5587 5589 5590 5589 5586 5587 5589 5592 5593 5592 5591 5591 5592 5593 5593 5592 5592 5592 5593 5593 5594 5593 5593 5593 5594 5594 5593 5593 5593 5593 5593 5593 5592 5592 5592 5592 5591 5591 5591 5591 5590 5590 5589 5589 5589 5588 5588 5587 5587 5586 5586 5586
5556 5556 5558 5559 5561 5562 5563 5564 5566 5566 5567 5568 5570 5571 5571 5573 5574 5575 5574 5574 5576 5579 5580 5579 5579 5579 5580 5582 5583 5583 5583 5582 5581 5581 5583 5586 5586 5584 5581 5582 5585 5586 5587 5587 5586 5586 5586 5586 5586 5587 5588 5588 5588 5588 5588 5588 5589 5589 5589 5588 5588 5588 5588 5588 5588 5588 5588 5587 5587 5587 5586 5586 5586 5586 5585 5585 5584 5584 5584 5583 5583 5582 5582 5581 5581 5580
5552 5553 5554 5555 5556 5558 5559 5560 5561 5562 5563 5564 5565 5566 5567 5568 5569 5570 5570 5571 5572 5574 5575 5574 5574 5574 5576 5577 5579 5579 5578 5576 5576 5577 5580 5583 5582 5579 5576 5578 5581 5581 5581 5582 5582 5582 5581 5580 5580 5582 5583 5584 5583 5583 5582 5583 5583 5584 5584 5583 5583 5583 5583 5583 5583 5583 5583 5582 5582 5582 5582 5581 5581 5581 5580 5580 5579 5579 5579 5578 5578 5577 5577 5576 5576 5575
5549 5550 5551 5552 5553 5554 5555 5556 5557 5558 5559 5560 5561 5562 5563 5564 5565 5565 5566 5566 5568 5569 5570 5570 5570 5570 5571 5573 5574 5574 5572 5571 5571 5573 5576 5579 5578 5575 5573 5574 5576 5577 5576 5577 5578 5578 5577 5576 5575 5576 5578 5579 5579 5578 5577 5577 5578 5578 5578 5578 5578 5578 5578 5578 5578 5578 5578 5577 5577 5577 5576 5576 5576 5576 5575 5574 5574 5574 5573 5573 5572 5572 5571 5571 5570 5570
5545 5546 5548 5549 5550 5551 5551 5552 5553 5554 5555 5556 5556 5557 5558 5559 5560 5561 5561 5562 5563 5564 5565 5566 5566 5566 5566 5567 5568 5569 5568 5567 5567 5568 5571 5574 5573 5571 5569 5570 5571 5572 5572 5572 5573 5573 5573 5572 5571 5571 5572 5574 5574 5573 5572 5572 5572 5572 5573 5573 5573 5573 5572 5572 5573 5573 5573 5572 5571 5571 5571 5571 5571 5570 5570 5569 5569 5568 5568 5567 5567 5566 5566 5566 5565 5564
5541 5543 5544 5545 5546 5547 5547 5548 5549 5550 5551 5551 5552 5553 5554 5555 5555 5556 5557 5557 5558 5559 5560 5561 5561 5561 5561 5562 5563 5564 5564 5563 5563 5563 5565 5568 5569 5567 5565 5565 5566 5567 5567 5567 5567 5567 5568 5568 5567 5566 5567 5567 5568 5568 5568 5567 5567 5567 5567 5568 5568 5568 5567 5566 5567 5567 5567 5566 5566 5565 5565 5565 5564 5564 5564 5563 5563 5562 5562 5562 5561 5561 5561 5560 5559 5559
5537 5539 5540 5541 5542 5542 5543 5544 5545 5546 5546 5547 5548 5549 5549 5550 5551 5551 5552 5553 5553 5554 5555 5556 5556 5556 5557 5557 5558 5559 5559 5558 5557 5558 5560 5562 5563 5562 5561 5560 5561 5561 5562 5562 5562 5562 5562 5562 5562 5562 5562 5562 5562 5562 5562 5562 5562 5562 5562 5562 5562 5562 5561 5561 5561 5561 5561 5560 5560 5559 5559 5559 5558 5558 5558 5557 5557 5556 5556 5556 5556 5555 5555 5554 5553 5553
5533 5534 5535 5536 5537 5538 5539 5540 5541 5541 5542 5543 5543 5544 5545 5546 5546 5547 5547 5548 5549 5549 5550 5551 5551 5551 5552 5553 5553 5554 5553 5552 5552 5553 5555 5556 5557 5556 5556 5556 5555 5556 5557 5557 5557 5556 5556 5556 5556 5557 5557 5557 5557 5556 5556 5556 5556 5557 5557 5556 5556 5556 5555 5555 5555 5555 5555 5554 5554 5553 5552 5552 5552 5552 5552 5551 5551 5551 5550 5550 5550 5549 5549 5548 5548 5547
5529 5530 5531 5532 5533 5534 5534 5535 5536 5537 5537 5538 5539 5539 5540 5541 5542 5542 5543 5543 5544 5545 5545 5546 5546 5546 5547 5547 5548 5548 5548 5547 5547 5548 5549 5550 5551 5551 5551 5551 5550 5550 5551 5552 5551 5551 5550 5551 5551 5551 5551 5552 5551 5551 5550 5550 5551 5552 5552 5551 5550 5549 5550 5549 5549 5549 5549 5548 5548 5547 5546 5546 5546 5546 5546 5545 5545 5545 5545 5544 5544 5543 5543 5543 5542 5541
5524 5525 5526 5527 5528 5529 5530 5531 5531 5532 5533 5533 5534 5535 5536 5536 5537 5538 5538 5539 5539 5540 5541 5541 5541 5541 5542 5542 5543 5543 5542 5542 5542 5543 5543 5544 5544 5545 5546 5545 5544 5544 5545 5546 5546 5545 5545 5546 5546 5546 5546 5546 5546 5546 5545 5545 5545 5546 5546 5544 5544 5544 5544 5544 5543 5543 5543 5543 5542 5541 5541 5541 5541 5541 5540 5540 5539 5539 5539 5538 5538 5537 5537 5537 5537 5536
5520 5521 5521 5523 5524 5525 5526 5526 5526 5527 5528 5529 5529 5530 5531 5531 5532 5533 5533 5534 5535 5535 5536 5536 5536 5536 5537 5537 5537 5537 5537 5537 5537 5537 5538 5538 5539 5539 5540 5540 5539 5539 5539 5539 5540 5540 5540 5540 5540 5540 5540 5540 5540 5540 5540 5540 5540 5540 5539 5538 5538 5539 5539 5538 5537 5537 5537 5537 5537 5536 5536 5535 5535 5535 5535 5534 5534 5534 5534 5533 5532 5532 5532 5532 5532 5531
5515 5516 5517 5519 5520 5521 5521 5522 5522 5522 5524 5525 5525 5526 5526 5527 5528 5528 5529 5529 5530 5531 5531 5531 5531 5531 5532 5532 5532 5532 5532 5532 5532 5532 5532 5533 5533 5533 5534 5534 5534 5534 5533 5533 5534 5535 5535 5535 5535 5534 5534 5535 5535 5535 5534 5534 5535 5535 5534 5534 5534 5533 5532 5532 5532 5532 5532 5532 5531 5531 5531 5530 5530 5530 5530 5529 5529 5528 5528 5528 5527 5527 5527 5527 5527 5527
5511 5512 5513 5514 5515 5516 5517 5517 5518 5518 5520 5520 5521 5521 5522 5523 5523 5524 5524 5525 5525 5526 5526 5526 5526 5527 5527 5527 5527 5527 5527 5527 5527 5527 5527 5527 5527 5528 5528 5529 5529 5529 5528 5528 5529 5529 5530 5530 5530 5529 5529 5529 5530 5530 5529 5529 5529 5529 5529 5530 5529 5528 5526 5526 5527 5528 5527 5527 5526 5526 5526 5526 5525 5525 5524 5524 5524 5524 5523 5523 5523 5523 5522 5522 5522 5522
5508 5509 5509 5510 5511 5512 5512 5513 5514 5515 5515 5516 5517 5517 5517 5518 5519 5519 5520 5520 5520 5521 5521 5521 5521 5522 5522 5522 5522 5522 5522 5522 5522 5522 5522 5522 5522 5523 5523 5523 5524 5523 5524 5524 5524 5524 5524 5524 5525 5525 5524 5524 5524 5525 5525 5524 5524 5524 5524 5525 5524 5523 5522 5522 5522 5522 5523 5523 5522 5521 5521 5521 5521 5520 5520 5519 5519 5519 5519 5519 5519 5518 5518 5517 5517 5517
5504 5505 5505 5506 5507 5508 5508 5509 5510 5511 5511 5512 5512 5513 5513 5513 5514 5515 5515 5515 5516 5516 5516 5516 5517 5517 5517 5517 5517 5517 5517 5517 5517 5517 5517 5517 5518 5518 5518 5518 5518 5518 5519 5519 5520 5519 5519 5519 5520 5520 5520 5519 5519 5520 5520 5519 5519 5519 5519 5520 5519 5519 5519 5518 5517 5517 5518 5519 5518 5517 5516 5516 5516 5516 5515 5515 5515 5515 5514 5514 5514 5514 5514 5514 5513 5513
5500 5501 5502 5502 5503 5504 5505 5505 5506 5506 5507 5507 5508 5508 5508 5509 5510 5510 5511 5511 5511 5511 5511 5512 5512 5513 5513 5513 5512 5512 5513 5513 5513 5513 5513 5513 5513 5513 5514 5514 5514 5514 5514 5515 5515 5515 5514 5514 5515 5515 5515 5515 5515 5515 5515 5514 5514 5514 5515 5515 5515 5515 5516 5514 5513 5513 5514 5514 5514 5513 5512 5512 5512 5512 5511 5511 5511 5511 5510 5510 5510 5510 5509 5509 5510 5509
5497 5498 5498 5499 5500 5500 5501 5502 5502 5502 5503 5504 5504 5504 5505 5505 5506 5506 5506 5507 5507 5507 5507 5508 5508 5508 5509 5508 5508 5508 5509 5509 5509 5509 5509 5509 5509 5509 5509 5509 5510 5509 5510 5510 5510 5511 5511 5511 5510 5510 5510 5511 5511 5511 5510 5510 5510 5510 5510 5510 5511 5511 5511 5510 5509 5510 5510 5510 5509 5509 5508 5508 5508 5508 5508 5507 5506 5506 5506 5506 5506 5506 5505 5505 5505 5506
5494 5494 5495 5496 5496 5497 5498 5498 5499 5499 5500 5501 5501 5501 5501 5502 5502 5503 5503 5503 5503 5504 5504 5504 5504 5505 5505 5504 5504 5505 5505 5505 5505 5505 5505 5505 5505 5505 5505 5505 5505 5506 5506 5506 5506 5506 5506 5506 5506 5506 5506 5506 5507 5506 5506 5506 5506 5506 5506 5506 5506 5507 5507 5506 5506 5506 5506 5506 5505 5505 5504 5504 5505 5505 5504 5503 5502 5502 5502 5502 5502 5502 5501 5501 5501 5501
5491 5491 5492 5493 5494 5494 5495 5495 5496 5496 5497 5497 5498 5498 5498 5499 5499 5500 5500 5500 5500 5501 5501 5501 5501 5501 5501 5501 5501 5501 5501 5501 5501 5501 5501 5501 5501 5501 5501 5501 5501 5502 5502 5502 5502 5502 5502 5502 5502 5502 5503 5503 5502 5502 5501 5502 5502 5502 5502 5501 5502 5503 5503 5502 5502 5501 5501 5502 5501 5501 5500 5500 5501 5501 5500 5499 5499 5499 5498 5498 5497 5497 5497 5497 5497 5496
5488 5489 5490 5490 5491 5491 5492 5492 5493 5494 5494 5494 5495 5495 5496 5496 5496 5496 5497 5497 5497 5498 5498 5498 5498 5498 5498 5497 5498 5498 5498 5498 5498 5498 5498 5498 5498 5498 5498 5498 5498 5498 5498 5498 5498 5498 5498 5498 5498 5498 5499 5499 5498 5498 5497 5497 5498 5499 5498 5498 5498 5499 5499 5498 5497 5497 5497 5498 5497 5496 5496 5496 5496 5496 5496 5495 5495 5495 5494 5493 5493 5493 5493 5493 5492 5492
5486 5487 5487 5488 5488 5489 5489 5490 5491 5491 5491 5492 5492 5493 5493 5493 5493 5494 5494 5494 5494 5495 5495 5495 5495 5495 5495 5495 5495 5495 5495 5495 5495 5495 5495 5495 5495 5495 5495 5495 5495 5495 5495 5495 5495 5495 5495 5494 5494 5494 5495 5495 5495 5494 5494 5494 5494 5495 5495 5494 5494 5495 5495 5494 5493 5493 5493 5493 5493 5492 5492 5492 5492 5492 5491 5491 5491 5490 5489 5489 5489 5488 5488 5488 5488 5488
5484 5484 5485 5486 5486 5486 5487 5487 5488 5489 5489 5489 5490 5490 5490 5491 5491 5491 5491 5491 5491 5492 5492 5491 5491 5491 5491 5491 5491 5491 5492 5491 5491 5491 5491 5491 5491 5491 5491 5491 5492 5492 5492 5492 5491 5491 5491 5491 5491 5491 5491 5491 5491 5491 5491 5490 5490 5491 5491 5491 5491 5491 5491 5490 5490 5489 5489 5489 5489 5488 5488 5488 5487 5487 5487 5487 5486 5486 5485 5485 5485 5484 5484 5484 5484 5484
5481 5482 5483 5483 5484 5484 5485 5485 5486 5486 5486 5487 5487 5487 5488 5488 5488 5488 5488 5489 5489 5489 5489 5489 5489 5489 5489 5488 5488 5488 5489 5488 5488 5488 5488 5488 5488 5488 5488 5488 5489 5489 5489 5488 5488 5488 5488 5488 5488 5487 5487 5487 5487 5488 5487 5487 5487 5487 5488 5487 5487 5487 5487 5486 5486 5485 5485 5485 5485 5485 5484 5484 5484 5483 5483 5483 5483 5482 5481 5481 5481 5480 5480 5480 5480 5480